Shungnak AP, Shungnak, AK, AK

6:35 AM AKST on November 22, 2019 (GMT -0900)
Shungnak AP, Shungnak, AK

Weather History for PAGH - September, 2019

Change the Weather History Date:

Monday, September 30, 2019

  Actual Average (WUND) Record (WUND)
Temperature  
Mean Temperature 42 °F -  
Max Temperature 46 °F - - (-1)
Min Temperature 39 °F - - (-1)
Degree Days  
Heating Degree Days 22    
Moisture  
Dew Point 38 °F    
Average Humidity 86    
Maximum Humidity 100    
Minimum Humidity 74    
Precipitation  
Precipitation 0.00 in - - ()
Sea Level Pressure  
Sea Level Pressure 29.74 in    
Wind  
Wind Speed 10 mph (SW)    
Max Wind Speed 15 mph    
Max Gust Speed 22 mph    
Visibility 10 miles    
Events Rain    
Averages and records for this station are not official NWS values.
T = Trace of Precipitation, MM = Missing Value Source: NWS Daily Summary

Daily Weather History Graph

Daily Weather History Graph

Search for Another Location

Airport or City:

Astronomy

Sep. 30, 2019 Rise Set
Actual Time 8:37 AM AKDT 7:58 PM AKDT
Civil Twilight 7:44 AM AKDT 8:51 PM AKDT
Nautical Twilight 6:40 AM AKDT 9:53 PM AKDT
Astronomical Twilight 5:29 AM AKDT 11:04 PM AKDT
Moon 11:42 AM AKDT (9/30) 8:41 PM AKDT (9/30)
Length of Visible Light 13h 06m
Length of Day
11h 21m
Waxing Crescent, 6% of the Moon is Illuminated
Sep 30
Waxing Crescent
Oct 5
First Quarter
Oct 13
Full
Oct 21
Last Quarter
Oct 27
New

Hourly Weather History & Observations

Time (AKDT) Temp. Windchill Dew Point Humidity Pressure Visibility Wind Dir Wind Speed Gust Speed Precip Events Conditions
12:05 AM 42.8 °F 37.5 °F 41.0 °F 93% 29.56 in 10.0 mi ESE 9.2 mph - N/A Rain Light Rain
12:41 AM 44.6 °F 39.2 °F 41.0 °F 87% 29.57 in 10.0 mi SSW 10.4 mph 20.7 mph N/A Rain Light Rain
12:56 AM 45.0 °F 38.2 °F 39.0 °F 80% 29.59 in 10.0 mi SSW 15.0 mph 18.4 mph N/A   Overcast
1:56 AM 45.0 °F 38.2 °F 37.0 °F 74% 29.62 in 10.0 mi SSW 15.0 mph 21.9 mph N/A   Overcast
2:56 AM 44.1 °F 40.8 °F 37.0 °F 76% 29.64 in 10.0 mi South 5.8 mph - N/A   Overcast
3:56 AM 43.0 °F 37.7 °F 37.0 °F 80% 29.65 in 10.0 mi SSE 9.2 mph - N/A Rain Light Rain
4:56 AM 42.1 °F 36.6 °F 39.0 °F 89% 29.64 in 10.0 mi SE 9.2 mph - N/A Rain Light Rain
5:56 AM 42.1 °F 35.7 °F 37.9 °F 85% 29.64 in 10.0 mi SSE 11.5 mph 18.4 mph N/A Rain Light Rain
6:56 AM 42.1 °F 35.7 °F 37.9 °F 85% 29.63 in 10.0 mi SSE 11.5 mph 18.4 mph N/A Rain Light Rain
7:56 AM 42.1 °F 36.1 °F 37.9 °F 85% 29.64 in 10.0 mi SSE 10.4 mph - N/A Rain Light Rain
8:56 AM 41.0 °F 35.2 °F 37.0 °F 86% 29.65 in 10.0 mi SSE 9.2 mph - N/A Rain Light Rain
9:10 AM 41.0 °F 35.8 °F 37.4 °F 87% 29.63 in 10.0 mi SSE 8.1 mph - N/A   Overcast
9:56 AM 41.0 °F 37.1 °F 37.9 °F 89% 29.67 in 10.0 mi South 5.8 mph - N/A Rain Light Rain
10:44 AM 39.2 °F 34.2 °F 39.2 °F 100% 29.66 in 9.0 mi SSW 6.9 mph - N/A Rain Light Rain
10:48 AM 39.2 °F 33.6 °F 39.2 °F 100% 29.66 in 8.0 mi SSW 8.1 mph - N/A Rain Light Rain
10:56 AM 39.9 °F 34.5 °F 39.0 °F 97% 29.68 in 9.0 mi SSW 8.1 mph - N/A Rain Light Rain
11:56 AM 41.0 °F 35.8 °F 39.9 °F 96% 29.70 in 10.0 mi SW 8.1 mph - N/A Rain Light Rain
12:56 PM 41.0 °F 34.7 °F 39.9 °F 96% 29.73 in 9.0 mi West 10.4 mph - N/A   Overcast
1:06 PM 41.0 °F 35.2 °F 39.2 °F 93% 29.72 in 10.0 mi West 9.2 mph - N/A   Overcast
1:22 PM 42.8 °F 37.5 °F 39.2 °F 87% 29.72 in 10.0 mi West 9.2 mph - N/A   Overcast
1:56 PM 42.1 °F 35.7 °F 39.0 °F 89% 29.76 in 9.0 mi West 11.5 mph - N/A   Overcast
2:21 PM 42.8 °F 37.5 °F 39.2 °F 87% 29.76 in 10.0 mi West 9.2 mph - N/A   Overcast
2:28 PM 42.8 °F 37.0 °F 39.2 °F 87% 29.76 in 10.0 mi WSW 10.4 mph - N/A   Overcast
2:40 PM 42.8 °F 36.6 °F 39.2 °F 87% 29.76 in 9.0 mi WSW 11.5 mph 16.1 mph N/A   Overcast
2:56 PM 43.0 °F 36.8 °F 39.0 °F 86% 29.78 in 10.0 mi West 11.5 mph - N/A   Overcast
3:07 PM 42.8 °F 38.0 °F 39.2 °F 87% 29.76 in 10.0 mi WSW 8.1 mph - N/A   Overcast
3:56 PM 46.0 °F 41.4 °F 39.0 °F 76% 29.80 in 10.0 mi West 9.2 mph - N/A   Overcast
4:56 PM 46.0 °F 41.4 °F 39.0 °F 76% 29.81 in 10.0 mi West 9.2 mph - N/A   Overcast
5:56 PM 46.0 °F 40.6 °F 39.0 °F 76% 29.83 in 10.0 mi West 11.5 mph - N/A   Overcast
6:56 PM 45.0 °F 40.1 °F 37.9 °F 76% 29.84 in 10.0 mi WNW 9.2 mph - N/A   Overcast
7:11 PM 44.6 °F 39.7 °F 37.4 °F 76% 29.83 in 10.0 mi WNW 9.2 mph - N/A   Overcast
7:56 PM 44.1 °F 41.5 °F 37.9 °F 79% 29.86 in 10.0 mi WSW 4.6 mph - N/A   Overcast
8:10 PM 44.6 °F 40.2 °F 39.2 °F 81% 29.84 in 10.0 mi WSW 8.1 mph - N/A   Overcast
8:56 PM 42.1 °F 36.1 °F 37.9 °F 85% 29.88 in 10.0 mi West 10.4 mph - N/A   Overcast
9:11 PM 42.8 °F 36.6 °F 39.2 °F 87% 29.86 in 8.0 mi West 11.5 mph 17.3 mph N/A Rain Light Rain
9:33 PM 41.0 °F 34.3 °F 37.4 °F 87% 29.87 in 10.0 mi West 11.5 mph 18.4 mph N/A   Overcast
9:56 PM 41.0 °F 34.7 °F 37.9 °F 89% 29.89 in 10.0 mi West 10.4 mph - N/A   Overcast
10:03 PM 39.2 °F 33.0 °F 37.4 °F 93% 29.88 in 10.0 mi West 9.2 mph - N/A   Overcast
10:56 PM 39.9 °F 35.8 °F 37.0 °F 89% 29.91 in 10.0 mi SW 5.8 mph - N/A   Overcast
11:56 PM 39.0 °F 32.8 °F 36.0 °F 89% 29.92 in 10.0 mi West 9.2 mph - N/A   Overcast